Flag for Germany Weather past 2 weeks in Leipzig, Saxony, Germany

Now
45 °F

Overcast.


Feels Like: 38 °F
Forecast: 43 / 54 °F
Wind: 15 mph from Southwest

Location: Leipzig-Schkeuditz

Current Time: Dec 18, 2014 at 3:58:08 AM

Latest Report: Dec 18, 2014 at 3:20 AM


Visibility: N/A

Pressure: 29.80 "Hg

Humidity: 93%

Dew point: 43 °F

Location of LeipzigLocation

Historic Weather in Leipzig — Graph

°F

Leipzig temperature yesterday

Maximum temperature yesterday: 43 °F (at 11:20 PM)
Minimum temperature yesterday: 32 °F (at 1:20 AM)
Average temperature yesterday: 37 °F

Past Weeks' High & Low Weather Summary

 TemperatureHumidityPressure
High50 °F (Dec 12, 7:50 PM)100% (Dec 3, 9:20 AM)30.36 "Hg (Dec 3, 9:20 AM)
Low27 °F (Dec 9, 1:50 AM)66% (Dec 12, 1:20 PM)29.45 "Hg (Dec 12, 7:20 PM)
Average37 °F91%29.98 "Hg
* Reported Dec 3 2:20 AM — Dec 18 2:20 AM, Leipzig, Weather by CustomWeather, © 2014

Note: Actual official high and low records may vary slightly from our data, if they occured in-between our weather recording intervals... More about our weather records

Advertising

Leipzig weather history for previous 24 hours

 ConditionsComfort  
Time TempWeatherWind HumidityBarometerVisibility
2:20 AM
Dec 18
43 °FDrizzle. Overcast.16 mph100%29.80 "HgN/A
1:50 AM43 °FDrizzle. Overcast.15 mph93%29.80 "HgN/A
1:20 AM43 °FDrizzle. Overcast.15 mph93%29.77 "HgN/A
12:50 AM43 °FDrizzle. Overcast.18 mph93%29.77 "HgN/A
12:20 AM43 °FDrizzle. Mostly cloudy.20 mph93%29.77 "HgN/A
11:50 PM
Dec 17
43 °FPassing clouds.20 mph93%29.74 "HgN/A
11:20 PM43 °FPartly cloudy.16 mph93%29.74 "HgN/A
10:50 PM41 °FPassing clouds.16 mph100%29.71 "HgN/A
10:20 PM41 °FPassing clouds.16 mph100%29.71 "HgN/A
9:50 PM41 °FPartly cloudy.16 mph100%29.71 "HgN/A
9:20 PM41 °FPassing clouds.16 mph93%29.68 "HgN/A
8:50 PM39 °FPartly cloudy.15 mph93%29.68 "HgN/A
8:20 PM39 °FDrizzle. Low clouds.15 mph100%29.65 "Hg5 mi
7:50 PM39 °FPartly cloudy.16 mph100%29.65 "Hg4 mi
7:20 PM37 °FPartly cloudy.16 mph100%29.65 "Hg4 mi
6:50 PM37 °FLight rain. Partly cloudy.13 mph100%29.65 "HgN/A
6:20 PM37 °FLight rain. Passing clouds.13 mph100%29.65 "HgN/A
5:50 PM37 °FLight rain. Passing clouds.12 mph100%29.65 "HgN/A
5:20 PM37 °FLight rain. Passing clouds.13 mph100%29.65 "HgN/A
4:50 PM37 °FLight rain. Mostly cloudy.13 mph100%29.65 "HgN/A
4:20 PM37 °FLight rain. Mostly cloudy.16 mph93%29.65 "Hg4 mi
3:50 PM37 °FLight rain. Mostly cloudy.17 mph93%29.65 "Hg4 mi
3:20 PM37 °FLight rain. More clouds than sun.17 mph93%29.65 "Hg4 mi
2:50 PM37 °FLight rain. More clouds than sun.17 mph93%29.65 "Hg4 mi
2:20 PM37 °FRain. Broken clouds.18 mph93%29.68 "Hg3 mi
1:50 PM39 °FLight rain. Broken clouds.14 mph87%29.68 "HgN/A
1:20 PM39 °FLight rain. Broken clouds.15 mph87%29.71 "HgN/A
12:50 PM39 °FBroken clouds.16 mph87%29.74 "HgN/A
12:20 PM39 °FBroken clouds.18 mph87%29.74 "HgN/A
11:50 AM39 °FBroken clouds.17 mph87%29.74 "HgN/A
11:20 AM37 °FBroken clouds.16 mph87%29.77 "HgN/A
10:50 AM37 °FSunny.15 mph87%29.80 "Hg10 mi
10:20 AM37 °FSunny.14 mph87%29.80 "Hg10 mi
9:50 AM36 °FSunny.15 mph93%29.83 "Hg10 mi
9:20 AM36 °FSunny.13 mph87%29.83 "Hg10 mi
8:50 AM34 °FSunny.10 mph93%29.86 "Hg10 mi
8:20 AM34 °FSunny.8 mph93%29.86 "Hg10 mi
7:50 AM34 °FPassing clouds.9 mph93%29.86 "HgN/A
7:20 AM32 °FPassing clouds.8 mph100%29.86 "HgN/A
6:50 AM34 °FPassing clouds.8 mph100%29.86 "HgN/A
6:20 AM34 °FClear.9 mph100%29.86 "Hg10 mi
5:50 AM32 °FClear.9 mph100%29.89 "Hg10 mi
5:20 AM32 °FClear.9 mph100%29.89 "Hg10 mi
4:20 AM32 °FPassing clouds.10 mph100%29.89 "HgN/A
3:50 AM32 °FPassing clouds.12 mph100%29.89 "HgN/A
3:20 AM32 °FClear.12 mph100%29.89 "Hg10 mi
Weather by CustomWeather, © 2014

See weather overviewHow to use our weather pages